#timestamp,LO_Frequency,Hit,StdDev 
1628254815.4,286047001.1,N
1628254835.2,286046998.5,N
1628254855.1,286046998.1,N
1628254856.0,286046998.1,N
1628254875.8,286046998.2,Y
1628254895.7,286047000.3,P
1628254915.5,286047000.4,N
1628254935.3,286047000.4,N
1628254955.2,286047000.3,N
1628254975.0,286047000.8,N
1628254975.9,286047000.8,N
1628254995.8,286046999.9,N
1628255015.6,286047001.1,N
1628255035.4,286047000.6,N
1628255055.3,286047000.8,N
1628255075.1,286047001.2,N
1628255095.8,286047000.6,N
1628255115.7,286047000.5,N
1628255135.5,286047000.0,N
1628255155.4,286047000.3,N
1628255175.2,286047000.9,N
1628255195.0,286047000.4,N
1628255195.9,286047000.4,N
1628255215.8,286046999.7,N
1628255235.6,286047000.9,N
1628255255.5,286047000.6,N
1628255275.3,286047000.6,N
1628255295.1,286047000.5,N
1628255315.9,286047000.2,N
1628255335.7,286047000.4,N
1628255355.5,286047000.5,N
1628255375.4,286047000.6,N
1628255395.2,286047000.2,N
1628255415.1,286047000.6,N
1628255416.0,286047000.6,N
1628255435.8,286047000.5,N
1628255455.6,286047000.5,N
1628255475.5,286047000.6,N
1628255495.3,286047000.9,N
1628255515.1,286047000.3,N
1628255535.9,286047000.1,N
1628255555.7,286047000.5,N
1628255575.6,286047000.5,N
1628255595.4,286047000.4,N
1628255615.2,286047000.2,N
1628255635.1,286047000.3,N
1628255636.0,286047000.3,N
1628255655.8,286047000.9,Y
1628255675.7,286047001.2,P
1628255695.5,286047000.9,N
1628255715.3,286047000.9,N
1628255735.2,286047001.2,Y
1628255755.0,286046999.4,P
1628255755.9,286046999.4,N
1628255775.8,286046998.4,N
1628255795.6,286046998.6,N
1628255815.4,286046999.1,N
1628255835.3,286046999.4,N
1628255855.1,286046998.4,N
1628255875.9,286046998.3,N
1628255895.7,286046998.7,N
1628255915.5,286046998.3,N
1628255935.4,286046998.8,N
1628255955.2,286046998.9,N
1628255975.0,286046998.8,N
1628255975.9,286046998.8,N
1628255995.8,286046998.4,N
1628256015.6,286046998.3,N
1628256035.5,286046998.3,N
1628256055.3,286046998.7,N
1628256075.1,286046999.4,N
1628256095.9,286046998.4,N
1628256115.7,286046998.3,N
1628256135.5,286046998.6,N
1628256155.4,286046998.3,N
1628256175.2,286046998.2,Y
1628256195.1,286047000.7,P
1628256196.0,286047000.7,N
1628256215.8,286047000.7,N
1628256235.6,286047000.7,N
1628256255.5,286047001.0,N
1628256275.3,286047000.4,N
1628256295.2,286047000.0,N
1628256315.9,286046998.2,N
1628256335.7,286047000.7,N
1628256355.6,286046999.9,N
1628256375.4,286047000.0,N
1628256395.3,286047000.7,N
1628256415.1,286047001.0,N
1628256416.0,286047001.0,N
1628256435.8,286047000.3,N
1628256455.7,286047000.7,N
1628256475.5,286047000.7,N
1628256495.3,286047000.8,N
1628256515.2,286047000.8,N
1628256535.0,286047000.0,N
1628256535.9,286047000.0,N
1628256555.8,286047000.7,N
1628256575.6,286047000.8,N
1628256595.4,286046998.6,N
1628256615.3,286047000.8,N
1628256635.1,286047001.1,N
1628256655.9,286047000.3,N
1628256675.7,286047000.0,N
1628256695.5,286047000.7,N
1628256715.4,286047001.2,N
1628256735.2,286047000.7,N
1628256755.0,286047001.0,N
1628256755.9,286047001.0,N
1628256775.8,286047000.6,N
1628256795.6,286047000.6,N
1628256815.5,286047000.6,N
1628256835.3,286047000.8,N
1628256855.1,286047001.0,N
1628256875.9,286047001.0,N
1628256895.7,286047000.6,N
1628256915.6,286046998.1,Y
1628256935.4,286046998.9,P
1628256955.2,286046998.2,N
1628256975.1,286046998.2,N
1628256976.0,286046998.2,N
1628256995.8,286046999.0,N
1628257015.6,286046998.8,N
1628257035.5,286046998.8,N
1628257055.3,286046998.4,N
1628257075.2,286047001.1,N
1628257095.0,286046998.5,N
1628257095.9,286046998.5,N
1628257115.7,286046998.1,N
1628257135.6,286046998.5,N
1628257155.4,286046998.5,N
1628257175.3,286046998.7,N
1628257195.1,286046999.4,N
1628257196.0,286046999.4,N
1628257215.8,286046998.4,N
1628257235.7,286046998.6,N
1628257255.5,286046998.4,N
1628257275.4,286046998.3,N
1628257295.2,286046998.3,N
1628257315.0,286046998.7,N
1628257315.9,286046998.7,N
1628257335.8,286046998.4,N
1628257355.6,286046998.1,N
1628257375.4,286047000.8,N
1628257395.3,286047001.1,N
1628257415.1,286046998.3,N
1628257435.9,286046998.3,N
1628257455.7,286046998.1,N
1628257475.5,286046998.5,N
1628257495.4,286047000.8,N
1628257515.2,286046998.4,N
1628257535.0,286046998.1,N
1628257536.0,286046998.1,N
1628257555.8,286046998.3,N
1628257575.6,286046998.1,N
1628257595.5,286046998.8,N
1628257615.3,286046998.9,N
1628257635.1,286046998.6,N
1628257655.9,286047000.7,N
1628257675.7,286046998.7,N
1628257695.6,286046998.6,N
1628257715.4,286046998.3,N
1628257735.2,286046998.7,N
1628257755.1,286046998.4,N
1628257756.0,286046998.4,N
1628257775.8,286046999.3,N
1628257795.7,286046999.3,N
1628257815.5,286046998.7,N
1628257835.3,286046998.5,N
1628257855.2,286046998.9,N
1628257875.0,286046998.5,N
1628257875.9,286046998.5,N
1628257895.7,286046998.8,N
1628257915.6,286046998.3,N
1628257935.4,286046998.4,N
1628257955.3,286046998.5,N
1628257975.1,286047001.1,N
1628257976.0,286047001.1,N
1628257995.8,286046998.4,N
1628258015.7,286046998.5,N
1628258035.5,286047000.7,N
1628258055.4,286046998.5,N
1628258075.2,286046998.2,N
1628258095.0,286046998.3,N
1628258095.9,286046998.3,N
1628258115.8,286046998.3,N
1628258135.6,286047001.2,N
1628258155.4,286046998.1,N
1628258175.3,286046998.2,N
1628258195.1,286046998.9,N
1628258215.9,286046998.6,N
1628258235.7,286046998.2,N
1628258255.5,286046998.6,N
1628258275.4,286046998.6,N
1628258295.2,286046998.3,N
1628258315.1,286047001.1,N
1628258316.0,286047001.1,N
1628258335.8,286047001.1,N
1628258355.6,286047000.8,N
1628258375.5,286047001.1,N
1628258395.3,286047001.0,N
